Location: Recife
(8.0585°S, 34.8848°W)
Time: 20:05:14
(UTC-03:00)

Explorer 11/Cluster Stage 4 - Pass Details

Date: 19 April 2026
Orbit: 463 x 1174 km, 28.8° (Epoch: 16 May)

Event Time Altitude Azimuth Distance (km) Brightness Sun altitude
Rises 05:16:32 0° 260° (W) 2,651 - -2.1°
Exits shadow 05:17:05 - 262° (W) 2,453 8.4 -2.0°
Reaches altitude 10° 05:18:51 10° 271° (W) 1,840 7.9 -1.5°
Maximum altitude 05:22:33 29° 332° (NNW) 1,150 7.3 -0.6°
Drops below altitude 10° 05:26:53 10° 32° (NNE) 2,178 9.6 0.4°
Sets 05:29:51 0° 42° (NE) 3,240 10.7 1.1°
